Weather History for Metropolis, IL

Change the Weather History Date:

Saturday, May 5, 2012

  Actual Average (KPAH) Record (KPAH)
Temperature  
Mean Temperature 79 °F 64 °F  
Max Temperature 90 °F 75 °F 92 °F (1959)
Min Temperature 68 °F 53 °F 39 °F (2011)
Degree Days  
Heating Degree Days 0 3  
Month to date heating degree days 18  
Since 1 July heating degree days 4082  
Cooling Degree Days 14 2  
Month to date cooling degree days 10  
Year to date cooling degree days 52  
Growing Degree Days 29 (Base 50)    
Moisture  
Dew Point 67 °F    
Average Humidity 67    
Maximum Humidity 88    
Minimum Humidity 45    
Precipitation  
Precipitation 0.00 in 0.18 in 1.63 in (1999)
Month to date precipitation 0.88  
Year to date precipitation 17.16  
Snow  
Snow 0.00 in 0.00 in 0.00 in (2002)
Month to date snowfall 0.0  
Since 1 July snowfall 9.1  
Snow Depth -    
Sea Level Pressure  
Sea Level Pressure 29.91 in    
Wind  
Wind Speed 4 mph (South)    
Max Wind Speed 10 mph    
Max Gust Speed -    
Visibility 10 miles    
Events Rain , Thunderstorm    
T = Trace of Precipitation, MM = Missing Value Source: NWS Daily Summary

Daily Weather History Graph

Daily Weather History Graph

Search for Another Location

Airport:

Trip Planner

Search our weather history database for the weather conditions in past years. The results will help you decide how hot, cold, wet, or windy it might be!

Date:

Astronomy

May. 05, 2012 Rise Set
Actual Time 5:55 AM CDT 7:48 PM CDT
Civil Twilight 5:27 AM CDT 8:16 PM CDT
Nautical Twilight 4:52 AM CDT 8:51 PM CDT
Astronomical Twilight 4:16 AM CDT 9:28 PM CDT
Moon 7:40 PM CDT (5/5) 5:17 AM CDT (5/5)
Length of Visible Light 14h 49m
Length of Day
13h 52m
Full, 100% of the Moon is Illuminated
May 5
Full
May 5
Full
May 12
Last Quarter
May 20
New
May 28
First Quarter

Hourly Weather History & Observations

Time (CDT) Temp. Heat Index Dew Point Humidity Pressure Visibility Wind Dir Wind Speed Gust Speed Precip Events Conditions
12:15 AM 77.2 °F - 68.2 °F 74% 29.89 in 10.0 mi South 3.5 mph - N/A   Mostly Cloudy
12:35 AM 76.1 °F - 68.5 °F 77% 29.89 in 10.0 mi South 6.9 mph - N/A   Scattered Clouds
12:55 AM 76.1 °F - 68.9 °F 78% 29.87 in 10.0 mi South 6.9 mph - N/A   Scattered Clouds
1:15 AM 76.1 °F - 69.1 °F 79% 29.88 in 10.0 mi South 6.9 mph - N/A   Clear
1:35 AM 76.1 °F - 69.6 °F 80% 29.89 in 10.0 mi Calm Calm - N/A   Scattered Clouds
1:55 AM 76.3 °F - 69.8 °F 80% 29.90 in 10.0 mi South 3.5 mph - N/A   Mostly Cloudy
2:15 AM 76.3 °F - 69.8 °F 80% 29.91 in 10.0 mi Calm Calm - N/A   Mostly Cloudy
2:35 AM 75.2 °F - 69.8 °F 83% 29.90 in 10.0 mi SSW 5.8 mph - N/A   Scattered Clouds
2:55 AM 75.7 °F - 70.0 °F 82% 29.89 in 10.0 mi SSW 6.9 mph - N/A   Clear
3:15 AM 75.4 °F - 70.0 °F 83% 29.89 in 10.0 mi South 3.5 mph - N/A   Clear
3:35 AM 75.4 °F - 70.0 °F 83% 29.89 in 10.0 mi South 5.8 mph - N/A   Clear
3:55 AM 75.6 °F - 69.8 °F 82% 29.90 in 10.0 mi South 4.6 mph - N/A Thunderstorm Clear
4:15 AM 75.2 °F - 69.8 °F 83% 29.90 in 10.0 mi South 3.5 mph - N/A   Clear
4:35 AM 75.4 °F - 69.8 °F 83% 29.91 in 10.0 mi Calm Calm - N/A   Scattered Clouds
4:55 AM 74.8 °F - 69.8 °F 84% 29.94 in 10.0 mi Calm Calm - N/A   Overcast
5:15 AM 74.5 °F - 70.2 °F 86% 29.94 in 10.0 mi Calm Calm - N/A   Mostly Cloudy
5:35 AM 74.1 °F - 70.5 °F 88% 29.94 in 10.0 mi Calm Calm - N/A   Mostly Cloudy
5:55 AM 74.3 °F - 70.7 °F 88% 29.95 in 10.0 mi Calm Calm - N/A   Overcast
6:15 AM 73.8 °F - 66.2 °F 77% 29.95 in 10.0 mi ENE 8.1 mph - N/A Thunderstorm Overcast
6:55 AM 71.8 °F - 60.8 °F 68% 29.97 in 10.0 mi East 6.9 mph - N/A Thunderstorm Thunderstorm
7:15 AM 71.6 °F - 59.9 °F 66% 29.97 in 10.0 mi East 9.2 mph - N/A Thunderstorm Thunderstorm
7:35 AM 70.9 °F - 59.5 °F 67% 29.95 in 10.0 mi South 6.9 mph - N/A Thunderstorm Thunderstorm
7:55 AM 69.3 °F - 61.0 °F 75% 29.98 in 10.0 mi SE 9.2 mph - N/A Rain , Thunderstorm Light Thunderstorms and Rain
8:15 AM 68.4 °F - 62.2 °F 81% 29.97 in 10.0 mi East 4.6 mph - N/A Thunderstorm Overcast
8:35 AM 68.0 °F - 62.8 °F 83% 29.96 in 10.0 mi SE 5.8 mph - N/A Thunderstorm Mostly Cloudy
8:55 AM 68.9 °F - 63.5 °F 83% 29.97 in 10.0 mi SSE 6.9 mph - N/A   Scattered Clouds
9:15 AM 73.0 °F - 62.6 °F 70% 29.96 in 10.0 mi South 8.1 mph - N/A   Clear
9:35 AM 74.5 °F - 62.6 °F 66% 29.95 in 10.0 mi SSW 9.2 mph - N/A   Clear
9:55 AM 77.0 °F - 62.8 °F 61% 29.93 in 10.0 mi SSW 8.1 mph - N/A   Clear
10:15 AM 79.3 °F - 63.5 °F 58% 29.94 in 10.0 mi SW 4.6 mph - N/A   Clear
10:35 AM 81.3 °F 82.7 °F 63.7 °F 55% 29.94 in 10.0 mi SSE 3.5 mph - N/A   Clear
10:55 AM 82.9 °F 84.2 °F 63.7 °F 52% 29.93 in 10.0 mi South 5.8 mph - N/A   Clear
11:15 AM 83.8 °F 84.7 °F 63.0 °F 49% 29.93 in 10.0 mi SSW 10.4 mph - N/A   Clear
11:35 AM 85.5 °F 86.6 °F 63.5 °F 48% 29.92 in 10.0 mi SSW 10.4 mph - N/A   Clear
11:55 AM 85.8 °F 87.1 °F 64.2 °F 48% 29.92 in 10.0 mi SSW 9.2 mph - N/A   Clear
12:15 PM 84.6 °F 85.9 °F 64.2 °F 50% 29.92 in 10.0 mi South 8.1 mph - N/A   Clear
12:35 PM 85.5 °F 86.6 °F 63.7 °F 48% 29.92 in 10.0 mi South 8.1 mph - N/A   Clear
12:55 PM 85.8 °F 86.8 °F 63.3 °F 47% 29.91 in 10.0 mi South 5.8 mph - N/A   Clear
1:15 PM 86.9 °F 88.1 °F 63.9 °F 46% 29.90 in 10.0 mi SE 4.6 mph - N/A   Clear
1:35 PM 88.5 °F 90.1 °F 64.8 °F 45% 29.90 in 10.0 mi SW 6.9 mph - N/A   Clear
1:55 PM 88.3 °F 89.9 °F 64.6 °F 45% 29.90 in 10.0 mi WSW 5.8 mph - N/A   Clear
2:15 PM 88.7 °F 90.4 °F 65.1 °F 45% 29.89 in 10.0 mi SSW 8.1 mph - N/A   Clear
2:35 PM 89.1 °F 91.3 °F 65.7 °F 46% 29.89 in 10.0 mi WSW 4.6 mph - N/A   Clear
2:55 PM 88.9 °F 91.0 °F 65.7 °F 46% 29.88 in 10.0 mi South 3.5 mph - N/A   Clear
3:15 PM 88.5 °F 90.8 °F 66.2 °F 47% 29.88 in 10.0 mi Calm Calm - N/A   Mostly Cloudy
3:55 PM 90.1 °F 93.1 °F 66.9 °F 46% 29.87 in 10.0 mi WSW 3.5 mph - N/A   Scattered Clouds
4:15 PM 89.8 °F 92.9 °F 66.9 °F 47% 29.87 in 10.0 mi Calm Calm - N/A   Clear
4:35 PM 90.0 °F 92.8 °F 66.6 °F 46% 29.86 in 10.0 mi Calm Calm - N/A   Clear
4:55 PM 89.1 °F 92.5 °F 67.5 °F 49% 29.86 in 10.0 mi ESE 3.5 mph - N/A   Clear
5:15 PM 87.8 °F 91.8 °F 68.5 °F 53% 29.87 in 10.0 mi ESE 4.6 mph - N/A   Clear
5:35 PM 86.9 °F 91.3 °F 69.3 °F 56% 29.87 in 10.0 mi Calm Calm - N/A   Clear
5:55 PM 86.0 °F 90.4 °F 69.4 °F 58% 29.87 in 10.0 mi East 4.6 mph - N/A   Scattered Clouds
6:15 PM 85.1 °F 89.1 °F 69.4 °F 59% 29.87 in 10.0 mi East 3.5 mph - N/A   Scattered Clouds
6:35 PM 84.2 °F 87.9 °F 68.9 °F 60% 29.87 in 10.0 mi ESE 4.6 mph - N/A   Scattered Clouds
6:55 PM 82.9 °F 86.3 °F 68.5 °F 62% 29.87 in 10.0 mi East 4.6 mph - N/A   Scattered Clouds
7:15 PM 81.9 °F 85.2 °F 68.9 °F 65% 29.87 in 10.0 mi East 3.5 mph - N/A   Clear
7:35 PM 80.6 °F 83.5 °F 68.9 °F 67% 29.88 in 10.0 mi Calm Calm - N/A   Clear
7:55 PM 79.9 °F - 68.9 °F 69% 29.88 in 10.0 mi Calm Calm - N/A   Scattered Clouds
8:15 PM 79.7 °F - 69.1 °F 70% 29.89 in 10.0 mi Calm Calm - N/A   Mostly Cloudy
8:35 PM 78.8 °F - 69.1 °F 72% 29.89 in 10.0 mi Calm Calm - N/A   Mostly Cloudy
8:55 PM 78.8 °F - 69.4 °F 73% 29.90 in 10.0 mi Calm Calm - N/A   Overcast
9:15 PM 78.3 °F - 69.3 °F 74% 29.90 in 10.0 mi ESE 3.5 mph - N/A   Scattered Clouds
9:35 PM 77.5 °F - 69.3 °F 76% 29.91 in 10.0 mi Calm Calm - N/A   Clear
9:55 PM 77.2 °F - 69.1 °F 76% 29.91 in 10.0 mi Calm Calm - N/A   Clear
10:15 PM 76.6 °F - 69.1 °F 77% 29.91 in 10.0 mi Calm Calm - N/A   Clear
10:35 PM 75.7 °F - 69.1 °F 80% 29.91 in 10.0 mi Calm Calm - N/A   Clear
10:55 PM 75.0 °F - 69.1 °F 82% 29.91 in 10.0 mi Calm Calm - N/A Thunderstorm Scattered Clouds
11:15 PM 74.8 °F - 69.1 °F 82% 29.91 in 7.0 mi Calm Calm - N/A   Scattered Clouds
11:35 PM 74.8 °F - 69.3 °F 83% 29.92 in 10.0 mi Calm Calm - N/A   Clear
11:55 PM 75.6 °F - 69.4 °F 81% 29.92 in 10.0 mi Calm Calm - N/A   Clear